Dawson, IA

4:16 AM CDT on August 26, 2016 (GMT -0500)
Perry Municipal

Weather History for KPRO - May, 2014

Change the Weather History Date:

Saturday, May 17, 2014

  Actual Average Record
Temperature  
Mean Temperature 50 °F -  
Max Temperature 66 °F 73 °F 89 °F (1992)
Min Temperature 35 °F 50 °F 35 °F (2014)
Degree Days  
Heating Degree Days 14    
Moisture  
Dew Point 26 °F    
Average Humidity 44    
Maximum Humidity 87    
Minimum Humidity 16    
Precipitation  
Precipitation 0.00 in - - ()
Sea Level Pressure  
Sea Level Pressure 30.12 in    
Wind  
Wind Speed 4 mph (West)    
Max Wind Speed 17 mph    
Max Gust Speed 21 mph    
Visibility 10 miles    
Events      
Averages and records for this station are not official NWS values.
T = Trace of Precipitation, MM = Missing Value Source: NWS Daily Summary

Daily Weather History Graph

Daily Weather History Graph

Search for Another Location

Airport or City:

Trip Planner

Search our weather history database for the weather conditions in past years. The results will help you decide how hot, cold, wet, or windy it might be!

Date:

Astronomy

May. 17, 2014 Rise Set
Actual Time 5:54 AM CDT 8:31 PM CDT
Civil Twilight 5:22 AM CDT 9:04 PM CDT
Nautical Twilight 4:42 AM CDT 9:44 PM CDT
Astronomical Twilight 3:57 AM CDT 10:29 PM CDT
Moon 11:32 PM CDT (5/17) 8:38 AM CDT (5/17)
Length of Visible Light 15h 41m
Length of Day
14h 37m
Waning Gibbous, 89% of the Moon is Illuminated
May 17
Waning Gibbous
May 21
Last Quarter
May 28
New
Jun 5
First Quarter
Jun 12
Full

Hourly Weather History & Observations

Time (CDT) Temp. Windchill Dew Point Humidity Pressure Visibility Wind Dir Wind Speed Gust Speed Precip Events Conditions
12:15 AM 43.2 °F 41.5 °F 29.1 °F 58% 30.11 in 10.0 mi WSW 3.5 mph - N/A   Mostly Cloudy
12:35 AM 41.5 °F - 29.8 °F 63% 30.11 in 10.0 mi Calm Calm - N/A   Mostly Cloudy
12:55 AM 40.5 °F - 32.0 °F 72% 30.11 in 10.0 mi Calm Calm - N/A   Overcast
1:15 AM 40.3 °F - 32.0 °F 72% 30.11 in 10.0 mi Calm Calm - N/A   Overcast
1:35 AM 39.4 °F - 32.4 °F 76% 30.11 in 10.0 mi Calm Calm - N/A   Overcast
1:55 AM 39.0 °F - 31.8 °F 75% 30.11 in 10.0 mi Calm Calm - N/A   Overcast
2:15 AM 39.7 °F 34.3 °F 31.6 °F 73% 30.11 in 10.0 mi WSW 8.1 mph - N/A   Scattered Clouds
2:35 AM 39.2 °F 34.2 °F 31.6 °F 74% 30.11 in 10.0 mi WSW 6.9 mph - N/A   Scattered Clouds
2:55 AM 39.2 °F 35.9 °F 32.0 °F 75% 30.11 in 10.0 mi West 4.6 mph - N/A   Overcast
3:15 AM 39.2 °F - 32.0 °F 75% 30.11 in 10.0 mi Calm Calm - N/A   Overcast
3:35 AM 39.4 °F - 32.4 °F 76% 30.11 in 10.0 mi Calm Calm - N/A   Overcast
3:55 AM 40.6 °F - 33.1 °F 74% 30.11 in 10.0 mi Calm Calm - N/A   Overcast
4:15 AM 40.1 °F - 33.8 °F 78% 30.11 in 10.0 mi Calm Calm - N/A   Overcast
4:35 AM 40.1 °F - 33.1 °F 76% 30.11 in 10.0 mi Calm Calm - N/A   Overcast
4:55 AM 39.9 °F - 33.3 °F 77% 30.12 in 10.0 mi Calm Calm - N/A   Mostly Cloudy
5:15 AM 39.6 °F 37.4 °F 32.2 °F 75% 30.12 in 10.0 mi NW 3.5 mph - N/A   Mostly Cloudy
5:35 AM 37.2 °F - 32.0 °F 81% 30.12 in 10.0 mi Calm Calm - N/A   Scattered Clouds
5:55 AM 35.4 °F - 32.0 °F 87% 30.12 in 10.0 mi Calm Calm - N/A   Clear
6:15 AM 38.7 °F 36.3 °F 31.3 °F 75% 30.13 in 10.0 mi WNW 3.5 mph - N/A   Clear
6:35 AM 37.2 °F - 31.1 °F 79% 30.13 in 10.0 mi Calm Calm - N/A   Clear
6:55 AM 36.1 °F - 32.0 °F 85% 30.13 in 10.0 mi Calm Calm - N/A   Clear
7:15 AM 38.3 °F - 33.1 °F 81% 30.14 in 10.0 mi Calm Calm - N/A   Clear
7:35 AM 40.8 °F - 32.2 °F 71% 30.14 in 10.0 mi Calm Calm - N/A   Clear
7:55 AM 42.8 °F 41.1 °F 32.0 °F 66% 30.14 in 10.0 mi West 3.5 mph - N/A   Clear
8:15 AM 45.9 °F 42.9 °F 31.6 °F 58% 30.15 in 10.0 mi WNW 5.8 mph - N/A   Clear
8:35 AM 48.2 °F - 30.0 °F 49% 30.15 in 10.0 mi WNW 6.9 mph - N/A   Clear
8:55 AM 50.2 °F - 29.7 °F 45% 30.16 in 10.0 mi NW 6.9 mph - N/A   Clear
9:15 AM 52.2 °F - 29.1 °F 41% 30.16 in 10.0 mi NNW 5.8 mph - N/A   Clear
9:35 AM 54.5 °F - 26.4 °F 34% 30.16 in 10.0 mi NNW 6.9 mph - N/A   Clear
9:55 AM 55.6 °F - 21.6 °F 27% 30.16 in 10.0 mi NNW 5.8 mph - N/A   Clear
10:15 AM 55.8 °F - 19.4 °F 24% 30.16 in 10.0 mi WNW 3.5 mph - N/A   Clear
10:35 AM 56.1 °F - 16.2 °F 21% 30.16 in 10.0 mi NW 5.8 mph - N/A   Clear
10:55 AM 57.0 °F - 18.0 °F 22% 30.15 in 10.0 mi ENE 3.5 mph - N/A   Clear
11:15 AM 58.6 °F - 18.9 °F 21% 30.15 in 10.0 mi NNW 6.9 mph - N/A   Clear
11:35 AM 58.1 °F - 17.2 °F 20% 30.15 in 10.0 mi Calm Calm - N/A   Clear
11:55 AM 58.6 °F - 16.9 °F 20% 30.15 in 10.0 mi Calm Calm - N/A   Clear
12:15 PM 60.3 °F - 18.7 °F 20% 30.15 in 10.0 mi North 8.1 mph - N/A   Clear
12:35 PM 59.4 °F - 18.7 °F 21% 30.15 in 10.0 mi NNW 4.6 mph - N/A   Clear
12:55 PM 61.2 °F - 19.2 °F 20% 30.15 in 10.0 mi NW 8.1 mph - N/A   Clear
1:15 PM 61.3 °F - 19.8 °F 20% 30.14 in 10.0 mi NE 4.6 mph - N/A   Clear
1:55 PM 62.6 °F - 18.5 °F 18% 30.13 in 10.0 mi SW 5.8 mph - N/A   Clear
2:15 PM 62.1 °F - 16.9 °F 17% 30.13 in 10.0 mi NW 3.5 mph - N/A   Clear
2:35 PM 63.3 °F - 20.3 °F 19% 30.13 in 10.0 mi WNW 5.8 mph - N/A   Clear
2:55 PM 63.1 °F - 19.6 °F 19% 30.12 in 10.0 mi NNE 4.6 mph - N/A   Clear
3:20 PM 64.6 °F - 18.7 °F 17% 30.11 in 10.0 mi West 8.1 mph - N/A   Clear
3:35 PM 64.0 °F - 18.5 °F 17% 30.11 in 10.0 mi North 5.8 mph - N/A   Clear
3:55 PM 64.4 °F - 18.7 °F 17% 30.11 in 10.0 mi SW 9.2 mph - N/A   Scattered Clouds
4:15 PM 66.2 °F - 19.0 °F 16% 30.10 in 10.0 mi West 17.3 mph 20.7 mph N/A   Overcast
4:35 PM 63.3 °F - 19.8 °F 19% 30.10 in 10.0 mi Calm Calm - N/A   Scattered Clouds
4:55 PM 66.0 °F - 20.7 °F 18% 30.10 in 10.0 mi NW 6.9 mph - N/A   Mostly Cloudy
5:15 PM 64.4 °F - 19.4 °F 18% 30.09 in 10.0 mi NNW 5.8 mph - N/A   Scattered Clouds
5:35 PM 64.6 °F - 20.1 °F 18% 30.09 in 10.0 mi WSW 10.4 mph - N/A   Mostly Cloudy
5:55 PM 66.2 °F - 19.6 °F 17% 30.09 in 10.0 mi WSW 13.8 mph - N/A   Mostly Cloudy
6:15 PM 65.5 °F - 20.3 °F 18% 30.09 in 10.0 mi West 10.4 mph - N/A   Mostly Cloudy
6:40 PM 64.4 °F - 19.9 °F 18% 30.09 in 10.0 mi SSW 3.5 mph - N/A   Scattered Clouds
6:55 PM 65.1 °F - 19.6 °F 17% 30.09 in 10.0 mi WSW 9.2 mph - N/A   Scattered Clouds
7:15 PM 63.7 °F - 21.0 °F 20% 30.09 in 10.0 mi SW 9.2 mph - N/A   Mostly Cloudy
7:35 PM 63.9 °F - 21.0 °F 19% 30.09 in 10.0 mi SW 6.9 mph - N/A   Mostly Cloudy
7:55 PM 62.6 °F - 21.4 °F 21% 30.09 in 10.0 mi SW 9.2 mph - N/A   Mostly Cloudy
8:15 PM 60.1 °F - 23.9 °F 25% 30.09 in 10.0 mi SSW 9.2 mph - N/A   Clear
8:35 PM 59.9 °F - 25.5 °F 27% 30.10 in 10.0 mi SSW 8.1 mph - N/A   Mostly Cloudy
8:55 PM 58.5 °F - 25.5 °F 28% 30.10 in 10.0 mi SSW 9.2 mph - N/A   Overcast
9:15 PM 55.2 °F - 27.5 °F 34% 30.10 in 10.0 mi SSW 9.2 mph - N/A   Mostly Cloudy
9:35 PM 54.1 °F - 28.4 °F 37% 30.10 in 10.0 mi SSW 10.4 mph - N/A   Scattered Clouds
9:55 PM 53.8 °F - 28.2 °F 37% 30.11 in 10.0 mi SSW 10.4 mph - N/A   Clear
10:15 PM 51.6 °F - 29.3 °F 42% 30.11 in 10.0 mi SSW 9.2 mph - N/A   Clear
10:35 PM 49.5 °F - 30.2 °F 48% 30.13 in 10.0 mi SSW 9.2 mph - N/A   Clear
10:55 PM 48.2 °F - 30.6 °F 51% 30.13 in 10.0 mi South 8.1 mph - N/A   Clear
11:15 PM 48.0 °F - 30.7 °F 51% 30.13 in 10.0 mi SSW 9.2 mph - N/A   Clear
11:35 PM 46.9 °F - 30.9 °F 54% 30.14 in 10.0 mi SSW 9.2 mph - N/A   Clear
11:55 PM 46.4 °F 41.9 °F 31.3 °F 56% 30.14 in 10.0 mi SSW 9.2 mph - N/A   Clear